Погода в Кирове

Россия / Саратовская область     50°48′22″N   46°41′57″E
В апреле 2022 года жителям России запретили посещать сайт meteo.paraplan.net по решению Генеральной прокуратуры. Аудитория сайта уменьшилась в 10 раз. Владельцы сайта не видят смысла в поддержке погодного сервера в таких условиях. Сайт будет закрыт в октябре.
темп.,
°C
ветер,
м/с
пор.,
м/с
влажн.,
%
обл.,
%
осадки,
мм/ч
давл.,
гПа
погр.,
м
29 сентября, чт
чт2901:00+15юз61292100 5.2 1006837
04:00+15юз4897100 8.6 1006417
07:00+15ю498292 0.6 1007222
10:00+17юз4676100 0.6 1007400
13:00+20зюз457053 0.1 1008901
16:00+21сз465617 0.6 10101304
19:00+18сз226510 0.0 101221
22:00+16с35735 0.0 101472
30 сентября, пт
пт3001:00+14ссв358684 0.0 101695
04:00+13с3490100 0.0 101770
07:00+12ссв349247 0.0 101970
10:00+16св2377100 0.0 1020332
13:00+19ссв2260100 0.0 1021816
16:00+20ссв2255100 0.0 10201040
19:00+17всв2266100 0.0 102216
22:00+15в3375100 0.0 102243
1 октября, сб
сб101:00+14вюв3481100 0.0 102268
04:00+13вюв228475 0.0 102226
07:00+13вюв338715 0.0 102331
10:00+17вюв336551 0.0 1023354
13:00+21ююв335380 0.0 1022989
16:00+23ю344711 0.0 10201518
19:00+20юв3457100 0.0 102064
22:00+18ююв3463100 0.0 101964
2 октября, вс
вс201:00+19ююв4863100 0.0 1018203
04:00+17ююв4117098 0.0 1017216
07:00+16ююв4672100 0.0 1017113
10:00+19ююз456583 0.3 1017305
13:00+24ююз675091 0.1 10161169
16:00+25ююз564392 0.1 10141714
19:00+21ююв485495 0.1 1014142
22:00+20ю5135299 0.1 1013273
3 октября, пн
пн301:00+18ю4115843 0.0 1013234
04:00+16ю4105587 0.0 1013204
07:00+16ююв51463100 0.0 1014337
10:00+19юв81544100 0.0 1014683
13:00+20ююв91538100 0.0 10151077
16:00+21ююв91535100 0.0 10151362
19:00+19ююв91537100 0.0 1016938
22:00+17ююв91634100 0.0 1017770